Lid_Strength_Index
11 13 15 14 13 13 15 16 16 14 12 15 16 16 15 14 15 15 15 15 14 13 12 11 11 11 11 11 11 11 9 9 9 9 9 9 8 7 6 6 6 7 8 9
13 15 12 11 12 13 14 15 16 14 12 15 16 17 15 15 15 15 15 15 14 13 13 12 12 11 12 12 12 11 10 9 9 9 9 9 9 8 7 7 6 5 5 6
14 12 10 11 13 13 15 16 16 15 13 15 16 18 17 16 15 14 14 14 13 13 13 13 13 12 12 12 12 11 10 9 9 9 9 8 9 9 8 8 7 7 6 5
13 11 11 13 13 13 16 13 13 14 15 19 15 20 18 17 17 17 16 16 15 14 13 13 12 12 12 12 12 11 11 10 9 9 10 11 11 11 9 9 8 7 7 7
15 13 13 13 13 12 14 13 14 14 16 18 17 18 18 18 18 18 17 16 16 15 15 13 12 12 12 11 12 11 11 10 9 9 10 10 10 10 10 9 8 8 8 7
13 11 12 13 12 12 13 15 16 16 17 20 19 18 19 20 18 18 17 16 15 15 15 14 12 12 12 12 11 11 11 10 9 9 9 10 10 10 9 9 8 8 8 8
15 13 13 12 14 14 14 19 21 21 21 20 17 19 18 17 17 17 17 17 15 15 15 15 13 13 12 12 11 11 10 10 10 10 10 10 10 10 10 8 7 7 7 7
18 17 15 13 15 17 17 18 21 23 23 22 18 20 18 17 16 16 16 16 15 15 14 14 13 13 12 12 12 11 11 11 10 10 9 9 9 9 9 8 7 7 7 6
20 19 15 14 15 15 18 19 17 20 21 23 21 19 18 17 17 16 16 16 15 15 14 14 13 12 12 11 11 11 10 9 9 9 9 9 9 9 8 8 7 7 7 5
19 21 18 15 14 15 16 15 19 21 23 24 23 22 20 19 18 17 17 16 15 14 14 13 12 12 11 10 10 10 9 10 9 9 9 8 8 8 8 8 8 7 6 6
18 20 20 18 18 19 18 19 19 19 21 23 25 22 18 17 17 17 16 15 15 14 13 13 12 11 10 10 10 9 8 9 8 8 8 8 8 8 8 8 7 7 6 5
18 20 22 21 18 16 18 19 19 21 22 23 25 23 16 17 16 16 15 15 14 13 12 12 11 10 10 9 8 8 8 8 7 7 7 7 7 6 7 7 6 6 6 5
18 21 23 21 19 17 18 17 18 20 21 24 24 21 16 17 17 16 15 15 14 12 12 11 11 11 10 9 9 8 8 8 7 7 6 6 6 6 6 6 6 5 5 5
15 21 21 21 20 19 19 18 18 19 24 22 21 19 16 16 16 15 14 14 14 12 12 11 11 10 9 9 9 8 8 7 7 6 5 6 6 6 6 6 6 6 5 5
17 20 21 19 19 19 19 19 18 19 20 21 18 20 17 17 16 15 14 13 13 13 12 11 10 10 10 9 9 8 7 6 5 5 4 4 4 4 5 6 6 5 5 4
17 20 19 20 18 18 19 17 17 17 17 18 18 18 14 14 16 15 14 14 14 12 11 10 10 10 10 9 9 8 8 7 6 5 5 4 3 3 5 5 5 5 5 4
18 19 21 24 20 20 21 19 18 18 17 17 20 17 16 17 15 15 14 13 12 12 11 11 11 10 10 10 9 9 8 8 8 7 6 5 5 4 4 4 5 5 5 4
19 19 20 24 22 25 18 17 17 17 17 16 16 15 15 15 15 14 12 13 12 12 12 11 11 10 10 9 9 8 8 8 8 8 7 6 6 5 4 4 5 5 5 5
16 18 22 25 25 21 18 18 18 18 18 15 16 15 15 14 14 14 12 12 12 11 11 11 10 10 9 9 8 8 8 8 8 8 7 6 6 6 6 5 5 5 5 6
17 18 20 23 28 26 19 16 15 16 20 16 15 15 15 14 18 15 13 12 12 12 11 11 10 10 9 8 7 8 8 8 8 8 7 6 5 5 6 6 5 4 4 5
20 21 22 23 26 22 17 15 15 21 18 15 15 15 14 16 15 13 12 12 12 12 11 10 10 10 9 8 7 8 8 8 7 6 6 6 5 5 5 5 6 5 5 6
20 21 22 22 25 23 15 16 18 16 16 14 14 13 14 13 13 12 12 13 12 12 11 10 10 9 8 7 7 8 8 7 6 6 6 6 5 4 4 5 7 7 8 8
19 17 19 19 19 15 13 14 14 14 14 14 13 13 13 13 14 13 13 13 12 12 11 10 9 9 8 7 7 8 7 6 6 6 6 6 5 5 5 6 6 8 7 7
16 15 17 17 15 13 12 12 13 12 13 12 12 13 13 14 13 14 13 13 12 11 11 9 9 9 9 8 8 7 6 6 6 7 7 7 6 5 5 6 6 7 7 7
14 14 15 16 13 13 12 13 13 12 12 12 13 13 13 13 13 13 13 13 12 11 10 9 9 8 8 8 8 7 6 6 7 7 7 7 6 5 5 5 5 6 5 6
14 15 16 14 11 13 14 13 12 12 12 13 13 13 13 13 13 13 13 12 11 11 10 9 9 8 8 8 8 7 6 6 7 7 7 7 6 5 5 6 6 3 3 3